GFSFLT2_sfc_dewp_060.txt.gz
Dewpoint
16 14 23 24 22 19 17 26 18 20 21 25 34 34 55 54 54 56 57 60 61 57 57 60 61 62 64 67 66 66 66 66
16 15 20 29 24 20 21 17 18 20 21 23 34 42 50 53 54 54 61 61 62 59 57 61 61 62 64 65 67 67 66 65
13 13 15 13 16 20 21 24 21 19 20 32 38 41 43 53 54 55 60 62 64 62 62 63 64 62 63 64 65 68 68 67
15 18 17 14 18 16 17 16 22 26 24 33 36 38 35 41 54 59 61 62 63 63 64 62 62 62 62 64 64 65 68 68
13 16 22 20 20 19 15 10 7 8 12 29 34 37 34 35 54 59 62 62 64 62 60 58 61 61 62 64 65 65 66 68
18 20 21 19 20 21 16 11 11 11 12 21 23 24 25 34 42 61 63 63 62 59 59 60 61 61 61 62 66 66 66 67
21 21 21 21 20 21 21 20 15 14 14 16 21 21 20 25 31 51 60 62 54 54 48 55 61 62 63 64 64 67 67 67
26 25 25 24 25 24 21 21 21 20 15 19 24 25 25 27 28 36 41 47 43 52 57 61 59 53 64 65 66 67 68 68
24 27 26 22 23 24 23 24 23 21 23 24 27 27 26 38 41 42 43 44 47 53 64 65 65 64 62 64 66 66 68 68
27 28 21 22 27 26 24 25 27 27 31 35 36 36 39 39 38 37 39 43 43 45 57 64 65 67 66 66 66 65 66 68
27 23 25 25 29 31 30 26 38 37 37 37 37 35 32 39 40 39 40 40 43 46 55 64 63 65 67 67 67 66 65 65
31 25 22 31 33 35 35 23 37 38 37 38 37 33 34 38 39 42 41 41 41 46 57 62 68 66 64 66 67 64 65 64
31 29 32 32 35 38 26 27 37 37 37 37 36 37 38 39 39 41 41 40 43 49 61 63 64 65 64 64 64 64 66 65
29 28 26 35 34 32 35 37 37 36 37 37 38 39 40 39 39 39 41 41 52 56 60 62 65 67 68 67 67 64 63 64
32 28 35 37 37 39 39 37 37 36 37 38 38 39 39 40 40 41 43 46 54 57 57 60 64 64 63 66 69 70 70 70
33 33 34 37 40 40 39 39 37 37 39 40 41 42 40 40 41 43 46 48 55 56 57 59 59 59 61 63 64 65 66 68
34 36 37 38 39 41 41 41 39 39 41 41 44 43 42 42 43 45 48 50 55 56 55 56 56 57 58 58 59 61 62 66
30 34 36 37 40 41 41 39 41 40 41 41 43 45 46 46 46 47 48 53 55 54 55 56 55 54 55 55 56 58 60 63
36 39 39 41 42 43 41 40 41 41 41 41 42 44 45 45 47 51 50 55 54 52 52 53 53 53 53 52 53 55 57 61

GFSFLT2_sfc_dewp_063.txt.gz
Dewpoint
17 16 18 22 20 19 18 23 16 19 21 27 41 42 44 55 59 59 60 61 60 58 59 60 60 61 65 66 65 66 66 66
16 16 16 18 23 22 19 15 14 19 21 31 37 36 40 53 57 59 60 60 59 59 57 60 61 61 64 66 65 66 66 66
14 15 14 17 18 18 21 20 18 18 26 34 37 35 36 45 54 57 55 58 60 59 59 59 61 61 63 65 65 65 65 65
16 20 20 20 19 17 17 18 20 23 25 25 34 32 31 55 54 55 59 59 64 65 65 64 64 64 64 64 65 65 65 65
11 14 21 20 21 22 17 12 12 10 16 21 23 22 27 51 59 62 62 62 61 62 63 63 63 62 63 64 64 65 66 65
16 19 21 20 21 21 19 17 16 12 16 16 20 23 25 31 45 58 62 56 58 60 62 62 61 62 62 63 63 64 65 66
23 22 23 22 24 23 20 21 19 17 18 17 21 22 26 37 42 45 50 47 50 57 59 62 63 61 61 62 63 65 64 66
25 28 26 23 24 23 23 21 21 21 22 23 28 29 38 39 39 38 40 43 48 47 51 55 63 65 62 61 65 65 65 65
22 28 24 20 24 25 25 25 23 22 26 35 35 35 38 38 38 38 38 37 41 46 52 52 61 65 65 65 66 67 66 67
24 25 16 22 33 31 26 35 37 36 37 38 37 37 39 39 38 38 40 39 38 37 46 50 57 63 66 66 65 65 68 67
23 20 24 27 33 31 32 33 37 37 37 37 37 36 37 39 38 38 39 39 39 39 42 49 58 66 66 66 67 66 66 68
28 22 21 30 32 33 35 30 35 36 36 36 36 33 33 38 39 39 39 39 40 40 45 51 59 64 65 65 66 66 66 64
29 30 31 33 34 35 28 29 36 36 35 35 34 36 37 38 39 40 40 40 40 40 46 54 57 62 64 65 65 66 66 65
28 25 20 35 34 28 33 37 36 35 35 34 35 36 37 39 40 40 40 40 40 40 43 52 57 60 62 63 66 69 69 65
27 26 33 36 35 38 39 36 35 35 35 36 36 36 39 41 41 41 40 40 41 42 44 51 59 61 62 61 63 65 64 65
29 29 33 34 37 39 40 39 39 39 39 38 37 38 40 43 43 42 41 42 43 45 46 50 56 60 59 60 61 61 61 63
33 33 34 36 38 39 39 41 40 39 40 39 40 41 41 44 44 44 46 45 45 47 48 52 56 57 57 58 57 57 58 61
28 32 32 32 37 40 40 41 40 40 40 41 41 41 42 42 44 45 46 46 48 47 48 52 56 56 56 56 55 55 56 58
34 35 37 38 40 42 41 42 42 41 41 41 41 41 41 42 44 45 46 46 47 48 50 54 53 53 53 53 53 53 53 56

GFSFLT2_sfc_dewp_069.txt.gz
Dewpoint
17 18 21 23 24 23 20 21 19 21 28 31 29 39 48 57 58 57 61 62 62 61 62 63 65 66 67 68 69 69 69 71
18 19 21 24 23 20 22 22 20 25 32 28 30 40 50 57 59 56 59 63 62 62 61 63 64 65 66 68 68 69 69 69
21 21 21 22 22 23 23 23 19 22 27 24 34 47 49 48 55 61 61 61 63 63 63 63 63 64 65 66 68 68 68 70
19 21 22 22 22 21 22 27 24 26 23 27 40 45 43 46 48 52 58 61 64 64 64 64 64 63 63 64 65 67 69 70
18 19 21 22 22 20 16 20 24 21 18 29 42 41 40 40 41 42 45 46 50 53 58 64 65 64 63 64 64 65 68 68
12 20 22 22 22 21 20 19 20 21 23 30 38 38 37 38 38 39 41 41 43 44 50 55 60 65 66 66 64 65 66 66
25 24 23 23 21 20 19 22 20 22 23 31 38 38 38 37 38 38 39 40 41 41 44 48 52 57 63 66 66 66 66 66
26 26 25 21 23 22 21 19 20 21 27 37 38 39 39 39 39 39 39 39 40 41 42 43 49 53 58 63 66 68 67 67
22 27 23 18 25 24 25 32 27 21 35 38 37 37 38 37 40 40 39 40 40 40 40 42 44 48 56 62 66 67 68 67
24 24 17 27 32 31 31 35 36 36 37 36 36 36 36 37 39 40 39 40 41 40 42 43 43 46 52 59 62 65 69 67
29 23 24 27 29 29 29 32 35 35 35 34 35 35 37 39 39 38 39 40 40 41 43 46 45 45 48 53 58 60 66 68
32 24 21 29 29 32 34 25 35 35 34 34 34 30 31 38 37 37 39 40 40 42 45 44 46 44 46 48 54 58 61 66
31 30 29 33 31 35 29 29 35 35 34 34 33 34 36 36 37 38 39 40 42 43 45 46 46 46 48 48 48 54 57 66
32 30 28 35 32 31 34 36 35 35 35 34 35 36 37 37 38 39 39 40 41 43 44 46 47 47 48 49 49 53 58 63
34 34 34 37 34 36 35 34 35 36 34 34 35 36 37 38 39 39 40 40 41 42 45 46 47 48 49 50 52 52 57 62
34 34 34 37 38 38 38 37 37 36 34 35 37 37 37 37 38 39 39 40 41 42 43 44 46 47 48 49 52 52 53 59
36 36 35 36 38 39 39 39 39 39 39 39 39 37 38 39 39 38 39 40 40 41 42 44 46 46 46 47 49 51 51 55
39 38 38 35 39 40 40 39 41 41 41 42 42 41 40 40 41 41 41 42 43 43 43 43 43 44 46 48 50 52 51 53
36 39 38 39 40 41 40 41 41 42 43 42 41 42 41 41 43 43 43 43 43 43 43 43 43 44 46 47 49 53 53 55

GFSFLT2_sfc_dewp_072.txt.gz
Dewpoint
19 20 23 32 30 25 20 22 18 22 33 31 37 50 53 57 55 55 59 60 61 61 62 63 64 65 67 68 71 71 70 72
18 19 21 25 27 24 22 23 21 22 29 29 39 50 52 55 58 58 59 61 61 61 62 63 63 64 66 67 70 71 70 70
21 22 23 22 22 24 21 21 19 21 25 30 44 49 50 51 52 55 59 62 63 65 63 63 63 64 65 66 68 69 70 70
20 21 22 23 25 25 21 27 24 23 25 38 44 46 46 45 46 47 50 52 55 57 59 63 64 64 64 65 65 67 68 70
19 19 22 22 23 24 23 24 28 19 25 41 44 47 43 40 41 42 43 44 45 45 51 56 61 64 65 64 63 64 68 68
15 20 21 23 21 22 22 20 25 24 30 38 41 43 43 39 38 39 41 42 41 45 50 53 54 55 63 66 66 65 65 67
24 21 21 20 18 18 22 25 24 27 29 37 40 40 40 40 40 39 40 40 41 41 44 50 51 53 56 62 65 68 68 67
25 24 23 20 21 20 18 20 24 25 31 36 39 40 40 40 41 41 40 41 41 42 43 43 46 50 52 54 62 65 69 68
22 24 20 17 20 19 21 24 24 23 34 36 36 37 38 37 40 42 41 42 42 41 42 45 45 46 47 51 56 60 63 69
22 23 17 28 29 27 25 31 32 35 36 36 37 37 37 40 40 40 40 41 42 40 42 45 46 46 48 48 51 54 60 65
26 20 22 24 28 26 30 31 34 33 34 33 34 34 40 39 39 39 39 40 40 41 42 47 48 48 50 49 49 50 55 60
27 27 20 28 29 31 30 25 35 34 34 33 33 23 37 39 37 38 39 40 41 42 43 44 48 47 48 48 50 50 51 53
28 31 29 31 30 33 25 31 36 34 35 34 32 35 37 38 39 40 41 41 42 43 43 45 47 48 49 50 50 51 52 53
34 32 32 34 33 32 37 36 34 35 35 35 35 34 36 37 39 40 41 41 41 42 43 45 47 48 49 50 52 53 54 53
36 38 37 38 35 37 34 35 35 35 33 34 33 35 36 36 38 39 40 41 40 40 43 44 46 47 48 50 52 52 52 54
37 30 35 38 36 37 36 35 36 34 34 34 35 36 36 36 37 38 39 41 41 41 42 43 45 46 48 49 50 50 51 52
38 36 35 36 37 38 38 38 37 36 36 37 37 37 37 37 39 39 41 41 41 41 41 43 44 45 45 46 47 47 48 49
42 37 39 34 39 40 39 39 39 38 38 39 39 39 40 40 41 41 41 42 42 43 43 43 43 44 46 46 45 46 46 46
36 37 37 37 39 40 39 40 40 39 40 39 39 39 40 40 41 42 41 42 43 43 43 43 43 43 44 46 45 46 45 47

GFSFLT2_sfc_dewp_075.txt.gz
Dewpoint
27 31 33 32 31 26 20 18 16 24 33 38 47 50 54 58 54 49 59 60 60 60 62 63 64 63 63 69 71 72 71 73
23 24 28 27 30 27 24 24 21 22 31 31 45 49 53 55 56 60 62 64 64 64 62 63 63 62 62 65 70 71 71 71
22 22 22 24 26 28 24 21 20 21 29 40 49 51 51 49 51 52 55 58 60 61 64 66 65 64 64 64 67 69 70 71
21 23 23 24 23 26 23 28 22 22 29 43 49 49 48 46 46 48 49 49 55 58 60 60 63 65 68 64 64 66 69 72
21 21 24 23 24 24 22 22 28 20 33 43 49 46 45 43 44 45 45 46 48 52 52 54 58 64 65 67 66 63 67 67
19 21 21 23 21 23 23 22 24 25 38 41 45 44 41 41 42 43 44 45 46 47 50 51 54 57 61 62 66 67 70 66
22 19 20 21 21 20 22 23 22 34 38 40 42 44 42 41 40 41 42 42 43 44 48 51 54 54 56 58 63 66 68 70
23 22 20 18 18 19 19 22 24 32 37 39 40 42 43 44 43 41 41 42 42 43 45 47 48 53 55 54 57 62 63 67
23 22 21 19 19 19 18 20 25 29 37 40 39 40 40 42 42 42 42 42 42 42 44 47 46 49 51 56 55 57 60 61
22 26 22 23 28 20 19 25 34 37 37 38 39 38 38 41 41 40 41 42 43 40 44 47 47 48 50 49 53 54 56 55
26 24 23 25 27 25 28 30 32 35 35 35 35 36 41 39 38 39 40 40 41 41 42 47 48 52 54 51 52 53 52 54
28 26 21 28 27 29 27 28 33 34 33 31 31 26 39 40 38 39 40 42 42 43 43 43 47 47 49 50 53 53 54 54
29 30 28 32 30 29 25 31 35 32 33 32 31 37 39 38 39 40 41 42 43 44 44 46 47 47 49 50 50 52 53 54
32 32 34 33 31 30 39 39 36 35 35 34 36 35 36 36 37 38 40 40 41 42 43 45 46 47 49 50 52 53 54 54
36 38 41 38 36 41 38 39 35 35 33 32 31 34 35 36 37 38 38 41 41 42 43 45 46 47 48 50 52 52 53 53
35 34 35 37 36 35 34 34 35 33 32 32 33 35 36 36 37 38 39 41 41 43 43 45 46 47 47 48 49 50 50 51
36 35 35 36 37 37 36 35 35 35 35 35 37 36 37 39 40 39 40 41 42 43 43 45 46 46 46 47 47 46 47 46
42 38 39 38 38 38 38 37 37 37 37 38 38 38 39 40 41 41 41 42 42 44 44 45 45 45 46 46 46 45 45 43
38 39 38 38 38 39 39 38 38 38 39 38 38 38 38 40 41 43 42 42 42 42 43 44 44 44 44 44 44 45 43 44